FW7144 Weather Reports


time (UTC)temp
F
wind
direction
speed
knots
gust
knots
rain 1hr
in
rain 24hr
in
rain mn
in
humidity
%
barometer
mb
20260504003205 73 288 0.0 5.2 0.00 0.00 0.00 38 1020.8
20260504002605 73 311 0.0 6.1 0.00 0.00 0.00 38 1020.8
20260504002017 74 306 0.0 6.1 0.00 0.00 0.00 38 1020.7
20260504001405 73 270 2.6 8.7 0.00 0.00 0.00 37 1020.7
20260504000830 74 287 1.7 7.8 0.00 0.00 0.00 38 1020.7
20260504000205 74 293 2.6 7.0 0.00 0.00 0.00 37 1020.6
20260503235617 74 291 0.0 7.0 0.00 0.00 0.00 38 1020.7
20260503235017 74 278 1.7 3.5 0.00 0.00 0.00 38 1020.7
20260503234429 75 336 0.0 7.0 0.00 0.00 0.00 37 1020.8
20260503233805 74 354 0.0 7.8 0.00 0.00 0.00 39 1020.9
20260503233204 74 267 2.6 7.0 0.00 0.00 0.00 38 1020.9
20260503232605 75 259 0.0 10.4 0.00 0.00 0.00 39 1020.9
20260503232005 74 277 0.0 11.3 0.00 0.00 0.00 38 1020.9
20260503231430 74 326 1.7 5.2 0.00 0.00 0.00 40 1021.0
20260503230817 74 259 2.6 10.4 0.00 0.00 0.00 36 1021.1
20260503230242 74 286 2.6 7.8 0.00 0.00 0.00 38 1021.0
20260503225629 74 16 0.0 8.7 0.00 0.00 0.00 41 1021.0
20260503225004 73 290 1.7 11.3 0.00 0.00 0.00 40 1021.1
20260503224405 73 295 0.0 9.6 0.00 0.00 0.00 41 1021.2
20260503223805 73 243 2.6 9.6 0.00 0.00 0.00 41 1021.2
20260503223205 74 296 2.6 11.3 0.00 0.00 0.00 43 1021.3
20260503222605 75 275 1.7 7.8 0.00 0.00 0.00 44 1021.4
20260503222030 73 36 1.7 6.1 0.00 0.00 0.00 47 1021.4
20260503221405 74 296 0.0 7.8 0.00 0.00 0.00 44 1021.5
20260503220805 74 15 1.7 12.2 0.00 0.00 0.00 45 1021.7
20260503220205 73 259 0.0 9.6 0.00 0.00 0.00 46 1021.7
20260503215605 73 301 1.7 13.9 0.00 0.00 0.00 46 1021.8
20260503215017 73 273 3.5 9.6 0.00 0.00 0.00 44 1021.8
20260503214430 72 314 0.0 9.6 0.00 0.00 0.00 48 1021.9
20260503213805 72 290 0.0 9.6 0.00 0.00 0.00 49 1022.1
20260503213205 73 294 1.7 11.3 0.00 0.00 0.00 48 1022.1
20260503212605 72 288 1.7 9.6 0.00 0.00 0.00 49 1022.3
20260503212005 72 29 0.0 8.7 0.00 0.00 0.00 51 1022.3
20260503211405 71 301 2.6 9.6 0.00 0.00 0.00 51 1022.3
20260503210805 71 296 0.0 10.4 0.00 0.00 0.00 51 1022.4
20260503210205 71 280 0.0 10.4 0.00 0.00 0.00 53 1022.5
20260503205605 71 354 1.7 12.2 0.00 0.00 0.00 51 1022.6
20260503205004 71 322 1.7 11.3 0.00 0.00 0.00 53 1022.8
20260503204405 71 347 0.9 8.7 0.00 0.00 0.00 52 1022.9
20260503203805 71 332 1.7 13.0 0.00 0.00 0.00 54 1023.0
20260503203205 70 16 1.7 12.2 0.00 0.00 0.00 55 1023.0
20260503202605 70 316 2.6 11.3 0.00 0.00 0.00 57 1023.3
20260503202005 69 306 5.2 12.2 0.00 0.00 0.00 55 1023.3
20260503201405 70 270 3.5 11.3 0.00 0.00 0.00 53 1023.4
20260503200805 69 292 1.7 11.3 0.00 0.00 0.00 56 1023.5
20260503200206 69 286 1.7 13.0 0.00 0.00 0.00 56 1023.6
20260503195605 68 300 2.6 12.2 0.00 0.00 0.00 57 1023.7
20260503195005 69 285 2.6 13.0 0.00 0.00 0.00 58 1023.8
20260503194405 69 290 3.5 10.4 0.00 0.00 0.00 58 1023.9
20260503193805 68 339 5.2 13.9 0.00 0.00 0.00 57 1024.0
20260503193229 68 264 2.6 11.3 0.00 0.00 0.00 58 1023.9
20260503192605 68 301 3.5 11.3 0.00 0.00 0.00 60 1024.2
20260503192005 67 253 1.7 13.0 0.00 0.00 0.00 60 1024.2
20260503191405 68 281 2.6 11.3 0.00 0.00 0.00 58 1024.4
20260503190805 68 332 2.6 12.2 0.00 0.00 0.00 57 1024.5
20260503190205 67 279 1.7 9.6 0.00 0.00 0.00 58 1024.6
20260503185605 68 298 2.6 9.6 0.00 0.00 0.00 60 1024.6
20260503185030 66 10 2.6 7.8 0.00 0.00 0.00 62 1024.6
20260503184405 66 271 1.7 8.7 0.00 0.00 0.00 63 1024.8
20260503183805 66 344 1.7 8.7 0.00 0.00 0.00 64 1024.9
20260503183205 66 284 3.5 8.7 0.00 0.00 0.00 63 1025.0
20260503182605 65 318 1.7 12.2 0.00 0.00 0.00 65 1025.0
20260503182006 65 309 1.7 10.4 0.00 0.00 0.00 64 1025.1
20260503181405 65 328 0.0 10.4 0.00 0.00 0.00 64 1025.1
20260503180805 65 280 2.6 11.3 0.00 0.00 0.00 63 1025.2
20260503180205 64 319 3.5 10.4 0.00 0.00 0.00 66 1025.3
20260503175605 65 331 1.7 12.2 0.00 0.00 0.00 64 1025.3
20260503175005 65 318 3.5 10.4 0.00 0.00 0.00 68 1025.4
20260503174405 64 354 1.7 8.7 0.00 0.00 0.00 71 1025.4
20260503173830 62 319 1.7 10.4 0.00 0.00 0.00 71 1025.5
20260503173205 62 279 2.6 10.4 0.00 0.00 0.00 71 1025.5
20260503172605 62 309 1.7 9.6 0.00 0.00 0.00 70 1025.6
20260503172005 62 324 0.0 8.7 0.00 0.00 0.00 70 1025.6
20260503171405 62 331 3.5 7.0 0.00 0.00 0.00 70 1025.6
20260503170817 62 329 1.7 7.8 0.00 0.00 0.00 72 1025.6
20260503170205 61 278 1.7 10.4 0.00 0.00 0.00 72 1025.7
20260503150829 59 257 1.7 7.0 0.00 0.00 0.00 74 1025.6
20260503150205 59 276 4.3 5.2 0.00 0.00 0.00 74 1025.6
20260503140205 56 308 0.0 0.0 0.00 0.00 0.00 80 1025.1
20260503131405 55 283 0.0 0.0 0.00 0.00 0.00 81 1024.8
20260503130830 55 334 0.0 0.0 0.00 0.00 0.00 81 1024.7
20260503130205 54 331 0.0 2.6 0.00 0.00 0.00 81 1024.7
20260503120205 54 86 0.0 0.0 0.00 0.00 0.00 79 1023.9
20260503110805 54 86 0.0 0.0 0.00 0.00 0.00 77 1023.9
20260503110205 54 86 0.0 0.0 0.00 0.00 0.00 77 1023.9
20260503100205 54 85 0.9 3.5 0.00 0.00 0.00 77 1023.9
20260503090205 53 74 1.7 4.3 0.00 0.00 0.00 78 1024.1
20260503081405 52 83 1.7 3.5 0.00 0.00 0.00 79 1024.2
20260503080805 52 97 1.7 2.6 0.00 0.00 0.00 79 1024.2
20260503080205 52 90 1.7 3.5 0.00 0.00 0.00 79 1024.3
20260503072605 51 88 2.6 5.2 0.00 0.00 0.00 80 1024.6
20260503072005 51 80 2.6 5.2 0.00 0.00 0.00 80 1024.6
20260503071405 51 86 2.6 5.2 0.00 0.00 0.00 80 1024.7
20260503070805 51 63 1.7 4.3 0.00 0.00 0.00 80 1024.7
20260503070229 51 78 0.9 4.3 0.00 0.00 0.00 81 1024.6
20260503060205 48 52 0.0 1.7 0.00 0.00 0.00 83 1024.7
20260503054417 48 79 2.6 4.3 0.00 0.00 0.00 83 1024.7
20260503053830 48 76 1.7 5.2 0.00 0.00 0.00 82 1024.7
20260503053205 49 58 2.6 7.0 0.00 0.00 0.00 82 1024.7
20260503052017 49 84 5.2 7.0 0.00 0.00 0.00 82 1024.6
20260503051405 49 87 1.7 5.2 0.00 0.00 0.00 83 1024.4
20260503050804 49 73 1.7 5.2 0.00 0.00 0.00 82 1024.3
20260503050205 49 78 2.6 5.2 0.00 0.00 0.00 82 1024.2
20260503045605 49 73 1.7 6.1 0.00 0.00 0.00 82 1024.2
20260503044429 49 63 1.7 6.1 0.00 0.00 0.00 82 1024.2
20260503043830 49 72 2.6 6.1 0.00 0.00 0.00 82 1024.2
20260503042605 50 65 3.5 7.8 0.00 0.00 0.00 81 1024.2
20260503041407 50 59 5.2 7.0 0.00 0.00 0.00 81 1024.1
20260503040807 50 83 5.2 7.8 0.00 0.00 0.00 81 1024.1
20260503040205 50 58 3.5 7.0 0.00 0.00 0.00 81 1024.0
20260503035605 50 68 2.6 7.0 0.00 0.00 0.00 81 1023.9
20260503035005 51 79 4.3 7.8 0.00 0.00 0.00 81 1023.8
20260503034405 51 62 4.3 8.7 0.00 0.00 0.00 80 1023.7
20260503033806 52 102 6.1 7.8 0.00 0.00 0.00 80 1023.7
20260503033205 52 46 1.7 6.1 0.00 0.00 0.00 80 1023.7
20260503032605 51 64 2.6 6.1 0.00 0.00 0.00 80 1023.7
20260503032005 52 112 0.0 6.1 0.00 0.00 0.00 80 1023.6
20260503031406 52 76 0.9 7.0 0.00 0.00 0.00 79 1023.5
20260503030806 52 90 2.6 6.1 0.00 0.00 0.00 79 1023.5
20260503030205 52 80 1.7 8.7 0.00 0.00 0.00 79 1023.5
20260503025605 52 75 3.5 9.6 0.00 0.00 0.00 79 1023.5
20260503025006 52 98 5.2 9.6 0.00 0.00 0.00 78 1023.4
20260503023830 53 110 5.2 11.3 0.00 0.00 0.00 78 1023.3
20260503023205 53 102 5.2 9.6 0.00 0.00 0.00 78 1023.2
20260503022630 53 94 5.2 9.6 0.00 0.00 0.00 78 1023.2
20260503022005 53 106 6.1 8.7 0.00 0.00 0.00 78 1023.0
20260503021405 53 130 3.5 6.1 0.00 0.00 0.00 77 1023.0
20260503020806 53 97 2.6 6.1 0.00 0.00 0.00 76 1022.8
20260503020205 54 113 3.5 7.0 0.00 0.00 0.00 75 1022.8
20260503015629 54 97 2.6 7.8 0.00 0.00 0.00 75 1022.6
20260503015005 54 97 3.5 3.5 0.00 0.00 0.00 75 1022.4
20260503014405 55 99 0.0 3.5 0.00 0.00 0.00 73 1022.3
20260503013805 55 109 2.6 4.3 0.00 0.00 0.00 73 1022.1
20260503013205 55 78 0.0 7.8 0.00 0.00 0.00 72 1022.0
20260503012605 56 72 2.6 7.0 0.00 0.00 0.00 72 1021.9
20260503012005 56 113 3.5 7.8 0.00 0.00 0.00 72 1021.8
20260503011405 56 95 3.5 9.6 0.00 0.00 0.00 71 1021.7
20260503010807 56 105 5.2 8.7 0.00 0.00 0.00 70 1021.6
20260503010230 57 106 3.5 7.8 0.00 0.00 0.00 69 1021.7
20260503005605 57 91 2.6 8.7 0.00 0.00 0.00 68 1021.5
20260503005005 58 111 5.2 7.8 0.00 0.00 0.00 68 1021.5
20260503004405 58 124 2.6 7.0 0.00 0.00 0.00 67 1021.5
20260503003805 59 127 3.5 7.0 0.00 0.00 0.00 66 1021.5